Main page
METAR-TAF:

METAR-TAF

Airports :

Walnut Ridge Regional Airport

Walnut Ridge, Arkansas, United States

latitude: 36-08N, longitude: 090-55W, elevation: 272 ft

Current weather observation

The report was made 24 minutes ago, at 00:56 UTC
Wind 6 mph from the Southeast
Temperature 88°F
Humidity 66%
Pressure 29.90 in. Hg
Visibility: 10 miles
Clear sky

METAR: KARG 250056Z AUTO 14005KT 10SM CLR 31/24 A2990 RMK AO2 SLP122 T03110244

Time: 20:20 (01:20 UTC)


TAF: missing

Weather observations and forecasts of more than 4000 airports (METAR and TAF reports).

The available stations are represented by yellow and red dots on the map.

Hover mouse over dot to see the name of the station.

Then click to see weather observations and forecasts.

To change the map : click on the green buttons with a black cross to zoom in, on the green button with a dash to zoom out, or on the green arrows for adjacent maps.


METAR-TAF: